Date String (YYYY-MM-DD hh:mm:ss) UTC,Instrument flags,Ambient pressure (hPa),Sample flow (lpm),Bypass flow (lpm),Sample temperature (°C),Ambient temperature (°C),ASC tube jacket temperature (°C),LED temperature (°C),Box temperature (°C),Sample RH (%),Span deviation,Mass concentration (μg/m³),Mass concentration (μg/m³),Mass concentration (μg/m³)
DateTimeUTC,F1_M11,P_M11,Q1_M11,Q2_M11,T1_M11,T2_M11,T3_M11,T4_M11,T5_M11,U1_M11,ZSPAN_M11,X0_M11,X2_M11,X1_M11
2021-09-27 19:00:00,,0826.2,5.00,0.00,29.1,27.6,00.0,38.1,30.9,13.8,0002.2,0014.17,0005.02,0004.01
2021-09-27 19:01:00,,0826.2,5.00,0.00,29.2,28.0,00.0,38.1,31.0,13.9,0001.9,0013.74,0005.00,0004.02
2021-09-27 19:02:00,,0826.1,4.98,0.00,29.2,28.3,00.0,38.1,31.1,13.6,0002.5,0013.83,0005.05,0004.04
2021-09-27 19:03:00,,0826.2,5.00,0.00,29.3,28.5,00.0,38.1,31.2,13.9,0000.2,0013.44,0005.09,0004.07
2021-09-27 19:04:00,,0826.1,5.00,0.00,29.3,27.9,00.0,38.2,31.1,13.9,0000.0,0013.59,0005.09,0004.09
2021-09-27 19:05:00,,0826.0,5.01,0.00,29.2,26.2,00.0,38.2,30.6,14.3,0000.0,0014.13,0005.09,0004.10
2021-09-27 19:06:00,,0826.0,4.99,0.00,29.1,25.9,00.0,38.2,30.5,14.4,0000.0,0016.42,0005.16,0004.12
2021-09-27 19:07:00,,0826.0,5.00,0.00,29.1,26.4,00.0,38.1,30.6,14.4,0000.0,0017.16,0005.23,0004.14
2021-09-27 19:08:00,,0826.0,5.01,0.00,29.1,26.8,00.0,38.1,30.7,14.0,0000.0,0017.50,0005.30,0004.15
2021-09-27 19:09:00,,0826.0,4.99,0.00,29.1,27.2,00.0,38.1,30.8,14.1,0000.0,0019.19,0005.34,0004.16
2021-09-27 19:10:00,,0826.0,5.00,0.00,29.1,27.6,00.0,38.1,31.0,14.0,0000.0,0019.83,0005.40,0004.18
2021-09-27 19:11:00,,0826.0,5.01,0.00,29.2,27.9,00.0,38.1,31.1,13.8,0000.0,0019.54,0005.42,0004.18
2021-09-27 19:12:00,,0825.9,4.99,0.00,29.3,28.2,00.0,38.1,31.2,13.5,0000.0,0019.78,0005.47,0004.19
2021-09-27 19:13:00,,0825.9,5.00,0.00,29.3,28.4,00.0,38.2,31.2,13.3,0000.0,0019.75,0005.50,0004.19
2021-09-27 19:14:00,,0825.9,5.00,0.00,29.3,27.2,00.0,38.2,30.9,12.9,0000.0,0019.77,0005.48,0004.19
2021-09-27 19:15:00,,0825.9,5.01,0.00,29.1,25.9,00.0,38.2,30.5,13.2,0000.0,0019.18,0005.51,0004.19
2021-09-27 19:16:00,,0825.9,5.00,0.00,29.1,26.1,00.0,38.2,30.5,13.0,0000.0,0017.34,0005.55,0004.20
2021-09-27 19:17:00,,0825.9,5.00,0.00,29.0,26.5,00.0,38.1,30.7,12.6,0000.0,0014.95,0005.53,0004.20
2021-09-27 19:18:00,,0825.9,5.00,0.00,29.1,27.0,00.0,38.1,30.8,12.4,0000.0,0014.76,0005.58,0004.20
2021-09-27 19:19:00,,0825.8,4.99,0.00,29.1,27.4,00.0,38.1,30.9,12.8,0000.0,0015.48,0005.55,0004.21
2021-09-27 19:20:00,,0825.8,5.01,0.00,29.2,27.7,00.0,38.1,31.0,13.0,0000.0,0014.23,0005.51,0004.22
2021-09-27 19:21:00,,0825.8,5.00,0.00,29.2,28.1,00.0,38.1,31.1,13.2,0000.0,0014.17,0005.50,0004.23
2021-09-27 19:22:00,,0825.8,5.00,0.00,29.3,28.3,00.0,38.2,31.2,13.0,0000.0,0014.59,0005.52,0004.25
2021-09-27 19:23:00,,0825.9,5.01,0.00,29.3,27.2,00.0,38.2,30.9,13.1,0000.0,0014.93,0005.49,0004.25
2021-09-27 19:24:00,,0826.1,5.00,0.00,29.2,25.8,00.0,38.2,30.6,13.3,0000.5,0015.11,0005.48,0004.27
2021-09-27 19:25:00,,0825.7,5.00,0.00,29.1,26.0,00.0,38.1,30.5,13.4,0002.3,0015.47,0005.51,0004.28
2021-09-27 19:26:00,,0825.7,5.00,0.00,29.0,26.4,00.0,38.1,30.7,13.2,0003.2,0015.39,0005.52,0004.29
2021-09-27 19:27:00,,0825.7,4.98,0.00,29.1,26.9,00.0,38.1,30.8,13.2,0003.1,0015.61,0005.49,0004.30
2021-09-27 19:28:00,,0825.7,5.01,0.00,29.1,27.3,00.0,38.1,30.9,12.7,0003.0,0016.29,0005.46,0004.30
2021-09-27 19:29:00,,0825.7,5.00,0.00,29.1,27.7,00.0,38.1,31.0,12.9,0002.8,0016.71,0005.49,0004.31
2021-09-27 19:30:00,,0825.7,4.99,0.00,29.2,28.0,00.0,38.1,31.1,13.2,0002.9,0016.44,0005.47,0004.31
2021-09-27 19:31:00,,0825.7,4.99,0.00,29.3,28.2,00.0,38.1,31.2,13.3,0003.7,0016.83,0005.44,0004.31
2021-09-27 19:32:00,,0825.7,5.01,0.00,29.3,27.3,00.0,38.2,30.9,12.9,0003.6,0017.04,0005.44,0004.32
2021-09-27 19:33:00,,0825.7,4.99,0.00,29.1,25.8,00.0,38.1,30.5,12.7,0003.7,0016.52,0005.45,0004.33
2021-09-27 19:34:00,,0825.6,5.01,0.00,29.0,26.0,00.0,38.1,30.5,13.1,0004.1,0016.21,0005.55,0004.33
2021-09-27 19:35:00,,0825.6,5.00,0.00,29.0,26.4,00.0,38.1,30.6,13.0,0004.5,0016.24,0005.56,0004.32
2021-09-27 19:36:00,,0825.6,4.99,0.00,29.0,26.8,00.0,38.1,30.7,13.2,0004.0,0017.63,0005.59,0004.31
2021-09-27 19:37:00,,0825.6,5.01,0.00,29.1,27.3,00.0,38.1,30.8,13.5,0003.8,0018.44,0005.61,0004.29
2021-09-27 19:38:00,,0825.6,5.00,0.00,29.1,27.6,00.0,38.1,30.9,13.5,0003.7,0018.77,0005.62,0004.28
2021-09-27 19:39:00,,0825.6,5.01,0.00,29.2,28.0,00.0,38.1,31.0,13.0,0003.3,0018.87,0005.61,0004.29
2021-09-27 19:40:00,,0825.6,5.00,0.00,29.2,28.3,00.0,38.1,31.1,12.6,0003.3,0018.53,0005.58,0004.28
2021-09-27 19:41:00,,0825.6,4.99,0.00,29.3,28.2,00.0,38.2,31.1,12.9,0002.6,0018.93,0005.59,0004.26
2021-09-27 19:42:00,,0825.6,5.00,0.00,29.2,26.6,00.0,38.1,30.7,13.0,0001.5,0018.91,0005.63,0004.24
2021-09-27 19:43:00,,0825.6,5.01,0.00,29.1,25.7,00.0,38.1,30.4,13.1,0000.8,0018.70,0005.62,0004.23
2021-09-27 19:44:00,,0825.5,5.00,0.00,29.0,26.1,00.0,38.1,30.5,13.3,0000.8,0019.30,0005.58,0004.21
2021-09-27 19:45:00,,0825.5,5.00,0.00,29.0,26.6,00.0,38.1,30.6,13.1,0000.0,0019.26,0005.49,0004.20
2021-09-27 19:46:00,,0825.5,4.99,0.00,29.0,27.1,00.0,38.1,30.8,12.9,0000.0,0019.36,0005.51,0004.20
2021-09-27 19:47:00,,0825.5,5.00,0.00,29.1,27.5,00.0,38.1,30.9,13.0,0000.2,0017.91,0005.50,0004.21
2021-09-27 19:48:00,,0825.5,4.99,0.00,29.1,27.8,00.0,38.1,31.0,13.0,0000.0,0016.45,0005.44,0004.21
2021-09-27 19:49:00,,0825.4,5.00,0.00,29.2,28.1,00.0,38.1,31.1,13.0,0000.0,0016.62,0005.43,0004.22
2021-09-27 19:50:00,,0825.4,4.99,0.00,29.2,27.4,00.0,38.1,30.9,13.1,0000.0,0016.63,0005.43,0004.23
2021-09-27 19:51:00,,0825.4,5.00,0.00,29.1,25.8,00.0,38.1,30.4,13.1,0000.0,0017.34,0005.42,0004.25
2021-09-27 19:52:00,,0825.5,5.01,0.00,29.0,25.8,00.0,38.1,30.4,13.5,0000.6,0017.57,0005.44,0004.26
2021-09-27 19:53:00,,0825.4,4.99,0.00,28.9,26.2,00.0,38.1,30.5,13.8,0002.6,0016.03,0005.39,0004.26
2021-09-27 19:54:00,,0825.4,5.00,0.00,28.9,26.7,00.0,38.0,30.6,13.7,0002.1,0015.87,0005.37,0004.26
2021-09-27 19:55:00,,0825.4,4.99,0.00,29.0,27.1,00.0,38.0,30.8,13.4,0000.0,0015.19,0005.37,0004.26
2021-09-27 19:56:00,,0825.4,5.00,0.00,29.0,27.5,00.0,38.0,30.9,13.3,0000.0,0016.34,0005.36,0004.26
2021-09-27 19:57:00,,0825.4,4.99,0.00,29.1,27.8,00.0,38.1,31.0,13.1,0002.5,0016.29,0005.36,0004.25
2021-09-27 19:58:00,,0825.4,5.01,0.00,29.2,28.1,00.0,38.1,31.1,13.1,0000.0,0016.30,0005.31,0004.24
2021-09-27 19:59:00,,0825.4,5.00,0.00,29.2,28.2,00.0,38.1,31.1,13.1,0000.0,0016.28,0005.32,0004.24
